Preview of NWS' New Version of Forecast
This preview is not operational and should not be used for support decisions.

Regional Weather Roundup (RWR)

Issued by National Weather Service (NWS)

                            
000
ASUS43 KDMX 181101
RWRIA 

WEATHER ROUNDUP FOR IOWA
NATIONAL WEATHER SERVICE DES MOINES IA
500 AM CST MON FEB 18 2019

NOTE: "FAIR" INDICATES FEW OR NO CLOUDS BELOW 12,000 FEET WITH NO
SIGNIFICANT WEATHER AND/OR OBSTRUCTIONS TO VISIBILITY.

* - THESE STATIONS ARE NOT NWS STATIONS...THUS NOT UNDER NWS
QUALITY CONTROL.  THEY ALSO DO NOT REPORT WEATHER SUCH 
AS PRECIPITATION OR FOG.  

IAZ001>003-012>014-020>022-031>034-043>046-181200-
   NORTHWEST IOWA
  
CITY           SKY/WX    TMP DP  RH WIND       PRES   REMARKS
CARROLL *      CLOUDY    12  12 100 N9        30.28R WCI   0          
CHEROKEE *     CLOUDY    10   8  91 CALM      30.30R                  
DENISON *      CLOUDY    12  10  92 NW5       30.30R WCI   4          
LE MARS *      CLOUDY     9   9 100 VRB5      30.32R WCI   0          
ORANGE CITY *  CLOUDY    10   9  92 NW6       30.29R WCI   1          
SHELDON *      CLOUDY     3   3 100 CALM      30.28R                  
SIOUX CITY     CLOUDY     8   5  87 NW9       30.33R WCI  -5          
SPENCER        CLOUDY     7   2  80 N15       30.27R WCI -10          
STORM LAKE *   CLOUDY     9   9 100 N10       30.26R WCI  -6          
$$
 
IAZ055>058-069>071-079>083-090>094-181200-
   SOUTHWEST IOWA
  
CITY           SKY/WX    TMP DP  RH WIND       PRES   REMARKS
ATLANTIC *     CLOUDY    12  12 100 N7        30.29R WCI   2          
AUDUBON *      MOCLDY    12  10  92 CALM      30.28R                  
CLARINDA *     CLOUDY    18  14  86 NW13      30.31R WCI   4          
COUNCIL BLFS * MOCLDY    12  12 100 NW8       30.29R WCI   1          
CRESTON *      CLOUDY    14  12  92 NW8       30.26R WCI   3          
HARLAN  *      PTCLDY     9   9 100 N7        30.29R WCI  -3          
LAMONI         CLOUDY    17  14  88 NW7       30.23R WCI   8          
RED OAK *      CLOUDY    16  14  93 NW10      30.30R WCI   3          
SHENANDOAH *   CLOUDY    12  10  92 NW8G14    30.31R WCI   1          
$$
 
IAZ047>049-059>061-072>074-084-181200-
   CENTRAL IOWA
  
CITY           SKY/WX    TMP DP  RH WIND       PRES   REMARKS
AMES           CLOUDY    15  12  88 N10       30.26R WCI   2          
ANKENY *       CLOUDY    16  14  93 N7        30.27R WCI   6          
BOONE *        FLURRIES  12  12 100 N12       30.24R WCI  -2          
CHARITON *     CLOUDY    19  18  93 NW6       30.24R WCI  11          
DES MOINES     MOCLDY    17  15  92 N6        30.26R WCI   9          
GRINNELL*      FLURRIES  13  11  94 N8        30.22R WCI   2          
KNOXVILLE *    MOCLDY    14  14 100 NW7       30.24R WCI   4          
MARSHALLTOWN   MOCLDY    13  11  92 N9        30.23R WCI   1          
NEWTON *       CLOUDY    14  14 100 N8        30.24R WCI   3          
PELLA *        FLURRIES  14  12  92 N7        30.25R WCI   4          
PERRY *        FAIR      10  10  98 CALM      30.28R                  
$$
 
IAZ004>006-015-016-023>025-035-036-181200-
   NORTH CENTRAL IOWA
  
CITY           SKY/WX    TMP DP  RH WIND       PRES   REMARKS
ALGONA *       MOCLDY     7   5  92 NW10      30.25R WCI  -8          
CLARION *      CLOUDY     9   7  92 N6        30.25R WCI  -1          
ESTHERVILLE    CLOUDY     2  -1  88 NW12      30.27R WCI -15          
FORT DODGE *   FLURRIES  13  10  88 N3        30.27R                  
MASON CITY     MOCLDY     5   3  91 NW10      30.25R WCI -10          
FOREST CITY *  FAIR      10   5  79 N8        30.24R WCI  -1          
IOWA FALLS *   FLURRIES  15  13  89 N12       30.24R WCI   2          
$$

IAZ007>011-017>019-026>030-037>042-050>054-066-181200-
   NORTHEAST IOWA
  
CITY           SKY/WX    TMP DP  RH WIND       PRES   REMARKS
CEDAR RAPIDS   CLOUDY    15  14  95 N8        30.19R FOG     WCI   4  
CHARLES CITY * CLOUDY    10   7  85 N8        30.23R WCI  -1          
CLINTON *      FLURRIES  18  15  88 N14       30.17R WCI   4          
DECORAH *      CLOUDY    14  14 100 N7        30.20R WCI   4          
DUBUQUE        LGT SNOW  17  14  88 N12       30.16R FOG     WCI   4  
OELWEIN *      MOCLDY    14  12  92 N8        30.21R WCI   3          
WATERLOO       CLOUDY    15  12  88 NW10      30.23R WCI   2          
$$
 
IAZ064-065-067-068-078-181200-
   EAST CENTRAL IOWA
  
CITY           SKY/WX    TMP DP  RH WIND       PRES   REMARKS
DAVENPORT      MOCLDY    14  10  84 NW6       30.19R WCI   5          
IOWA CITY      CLOUDY    17  13  84 NW6       30.22R WCI   9          
MT. PLEASANT * MOCLDY    21  19  93 N9        30.21R WCI  11          
MUSCATINE *    CLOUDY    19  16  86 NW9       30.21R WCI   9          
QUAD CITIES    FAIR      20  15  81 NW7       30.17R WCI  11          
$$
 
IAZ062-063-075>077-085>089-095>099-181200-
   SOUTHEAST IOWA
  
CITY           SKY/WX    TMP DP  RH WIND       PRES   REMARKS
BURLINGTON     CLOUDY    21  16  81 N12       30.19R WCI   9          
FAIRFIELD *    CLOUDY    18  16  93 N9        30.21R WCI   6          
KEOKUK *       CLOUDY    25  21  86 NW7       30.19R WCI  17          
OSKALOOSA *    FLURRIES   9   8  93 N9        30.23R WCI  -4          
OTTUMWA        CLOUDY    16  13  88 NW8       30.22R WCI   5          
WASHINGTON *   PTCLDY    14  14 100 NW9       30.22R WCI   2          
$$

ABBREVIATIONS USED IN REMARKS
   TC - TEMPERATURES IN CELSIUS
  WCI - WIND CHILL INDEX
   HX - HEAT INDEX
  VSB - VISIBILITY  
$$